Погода в Лазне Либверда

Чехия     50°53′25″N   15°12′20″E
темп.,
°C
ветер,
м/с
пор.,
м/с
влажн.,
%
обл.,
%
осадки,
мм/ч
давл.,
гПа
погр.,
м
9 мая, вс
вс923:00+6ююв3859100 0.0 1018159
02:00+7ю41156100 0.0 1017303
05:00+6ю457010 0.0 101570
08:00+12ю3106440 0.0 1015323
11:00+17ююз6115198 0.0 1013825
14:00+19ююз795369 0.0 1013852
17:00+19ю6105913 0.0 1012671
20:00+15ююв41073100 0.0 1011288
10 мая, пн
пн1023:00+11ю377480 0.0 1011213
02:00+8ююв238726 0.0 101159
05:00+8юв238136 0.0 101064
08:00+12ююв276623 0.0 1010413
11:00+18ю365751 0.0 1009655
14:00+21ююз3455100 0.0 1010822
17:00+21ююз45606 0.0 1011938
20:00+16ююв22805 0.0 101129
11 мая, вт
вт1123:00+13ююв338972 0.0 101148
02:00+12юв229081 0.0 100927
05:00+11ююв129099 0.0 100732
08:00+16ююв2475100 0.0 1007345
11:00+20ююв245899 0.0 1006926
14:00+22юв355347 0.0 10051470
17:00+22ю47617 0.0 10051444
20:00+18ююв367680 0.0 1004159
12 мая, ср
ср1223:00+15ююв238855 0.0 100597
02:00+13ю119245 0.0 100435
05:00+12зюз119547 0.0 100333
08:00+13сз2297100 0.1 1004238
11:00+13сз2294100 0.1 1005345
14:00+12сз3295100 0.4 1006409
17:00+12зсз3396100 0.6 1005410
20:00+11зсз3599100 4.9 1005414
13 мая, чт
чт1323:00+11з3699100 7.0 1005496
02:00+10з2599100 8.1 1004460
05:00+10зсз1499100 0.5 1003422
08:00+11св2395100 0.7 1003320
11:00+13св347698 0.1 1003974
14:00+15св3363100 0.1 10031308
17:00+11з4697100 0.3 1005371
20:00+9з3898100 0.5 1006382